Weather History for Randolph AFB, TX

Change the Weather History Date:

Sunday, February 19, 2012

  Actual Average Record
Temperature  
Mean Temperature 52 °F -  
Max Temperature 60 °F 64 °F 81 °F (2014)
Min Temperature 44 °F 45 °F 30 °F (2006)
Degree Days  
Heating Degree Days 13    
Growing Degree Days 2 (Base 50)    
Moisture  
Dew Point 46 °F    
Average Humidity 81    
Maximum Humidity 100    
Minimum Humidity 59    
Precipitation  
Precipitation 0.00 in - - ()
Sea Level Pressure  
Sea Level Pressure 30.08 in    
Wind  
Wind Speed 4 mph (East)    
Max Wind Speed 9 mph    
Max Gust Speed -    
Visibility 10 miles    
Events      
Averages and records for this station are not official NWS values.
T = Trace of Precipitation, MM = Missing Value Source: NWS Daily Summary

Daily Weather History Graph

Daily Weather History Graph

Search for Another Location

Airport:

Trip Planner

Search our weather history database for the weather conditions in past years. The results will help you decide how hot, cold, wet, or windy it might be!

Date:

Astronomy

Feb. 19, 2012 Rise Set
Actual Time 7:09 AM CST 6:25 PM CST
Civil Twilight 6:45 AM CST 6:49 PM CST
Nautical Twilight 6:17 AM CST 7:17 PM CST
Astronomical Twilight 5:49 AM CST 7:44 PM CST
Moon 5:23 AM CST (2/19) 4:33 PM CST (2/19)
Length of Visible Light 12h 04m
Length of Day
11h 15m
Waning Crescent, 5% of the Moon is Illuminated
Feb 19
Waning Crescent
Feb 21
New
Feb 29
First Quarter
Mar 8
Full
Mar 14
Last Quarter

Hourly Weather History & Observations

Time (CST) Temp. Windchill Dew Point Humidity Pressure Visibility Wind Dir Wind Speed Gust Speed Precip Events Conditions
12:55 AM 46.9 °F - 44.4 °F 91% 30.08 in 10.0 mi Calm Calm - N/A   Clear
1:55 AM 45.9 °F 44.6 °F 45.0 °F 97% 30.08 in 10.0 mi NNE 3.5 mph - N/A   Clear
2:55 AM 45.7 °F - 45.1 °F 98% 30.08 in 10.0 mi Calm Calm - N/A   Clear
3:10 AM 44.6 °F - 44.6 °F 100% 30.08 in 10.0 mi Calm Calm - N/A   Mostly Cloudy
3:12 AM 44.6 °F - 44.6 °F 100% 30.08 in 10.0 mi Calm Calm - N/A   Mostly Cloudy
3:27 AM 46.4 °F - 46.4 °F 100% 30.08 in 10.0 mi Calm Calm - N/A   Overcast
3:42 AM 48.2 °F - 46.4 °F 93% 30.07 in 10.0 mi NNE 3.5 mph - N/A   Overcast
3:54 AM 48.2 °F - 46.4 °F 93% 30.07 in 10.0 mi North 4.6 mph - N/A   Overcast
3:55 AM 47.8 °F - 46.8 °F 96% 30.07 in 10.0 mi North 4.6 mph - N/A   Overcast
4:25 AM 48.2 °F - 44.6 °F 87% 30.07 in 10.0 mi NNE 6.9 mph - N/A   Overcast
4:39 AM 48.2 °F - 44.6 °F 87% 30.07 in 10.0 mi North 9.2 mph - N/A   Scattered Clouds
4:55 AM 48.6 °F - 43.9 °F 84% 30.08 in 10.0 mi North 6.9 mph - N/A   Clear
5:55 AM 47.3 °F - 43.0 °F 85% 30.09 in 10.0 mi NNE 6.9 mph - N/A   Clear
6:55 AM 45.5 °F 43.2 °F 42.4 °F 89% 30.11 in 10.0 mi NNE 4.6 mph - N/A   Clear
7:55 AM 46.8 °F - 42.6 °F 85% 30.12 in 10.0 mi North 5.8 mph - N/A   Clear
8:55 AM 50.7 °F - 43.0 °F 75% 30.14 in 10.0 mi NNE 8.1 mph - N/A   Clear
9:55 AM 53.8 °F - 43.5 °F 68% 30.14 in 10.0 mi North 9.2 mph - N/A   Clear
10:55 AM 56.5 °F - 45.1 °F 66% 30.14 in 10.0 mi NE 8.1 mph - N/A   Clear
11:44 AM 57.2 °F - 46.4 °F 67% 30.16 in 10.0 mi ESE 9.2 mph - N/A   Mostly Cloudy
11:55 AM 57.4 °F - 46.9 °F 68% 30.15 in 10.0 mi ESE 5.8 mph - N/A   Mostly Cloudy
12:01 PM 57.2 °F - 46.4 °F 67% 30.15 in 10.0 mi ESE 4.6 mph - N/A   Scattered Clouds
12:55 PM 57.6 °F - 46.9 °F 68% 30.13 in 10.0 mi ESE 5.8 mph - N/A   Partly Cloudy
1:55 PM 58.6 °F - 47.7 °F 67% 30.08 in 10.0 mi ESE 6.9 mph - N/A   Clear
2:55 PM 59.5 °F - 47.7 °F 65% 30.06 in 10.0 mi SE 6.9 mph - N/A   Clear
3:55 PM 59.5 °F - 47.5 °F 64% 30.04 in 10.0 mi East 4.6 mph - N/A   Partly Cloudy
4:12 PM 60.8 °F - 46.4 °F 59% 30.03 in 10.0 mi South 6.9 mph - N/A   Mostly Cloudy
4:25 PM 60.8 °F - 48.2 °F 63% 30.02 in 10.0 mi ESE 8.1 mph - N/A   Mostly Cloudy
4:55 PM 59.7 °F - 46.9 °F 63% 30.02 in 10.0 mi ESE 5.8 mph - N/A   Clear
5:55 PM 57.0 °F - 48.2 °F 72% 30.03 in 10.0 mi SSE 6.9 mph - N/A   Clear
6:55 PM 51.3 °F - 46.6 °F 84% 30.02 in 10.0 mi SSE 5.8 mph - N/A   Clear
7:55 PM 50.5 °F - 46.8 °F 87% 30.04 in 10.0 mi SE 3.5 mph - N/A   Clear
8:55 PM 49.3 °F - 46.8 °F 91% 30.04 in 10.0 mi ESE 3.5 mph - N/A   Clear
9:55 PM 50.4 °F - 46.0 °F 85% 30.05 in 10.0 mi Calm Calm - N/A   Clear
10:55 PM 50.2 °F - 46.2 °F 86% 30.05 in 10.0 mi SE 6.9 mph - N/A   Clear
11:55 PM 48.7 °F - 48.0 °F 97% 30.04 in 10.0 mi SSE 9.2 mph - N/A   Clear